EW3154 Weather Reports


time (UTC)temp
C
wind
direction
speed
KPH
gust
KPH
rain 1hr
cm
rain 24hr
cm
rain mn
cm
humidity
%
barometer
mb
20260507154501 20 102 0.0 0.0 0.00 0.51 0.03 46 1011.2
20260507153102 21 178 0.0 0.0 0.00 0.51 0.03 46 1011.0
20260507151601 21 82 0.0 0.0 0.00 0.51 0.03 43 1011.0
20260507150100 21 94 0.0 1.6 0.00 0.51 0.03 43 1010.7
20260507144605 21 88 0.0 3.2 0.00 0.61 0.03 44 1010.7
20260507143100 21 87 0.0 0.0 0.00 0.61 0.03 48 1010.7
20260507141610 20 199 1.6 9.7 0.00 0.61 0.03 52 1010.8
20260507140100 20 104 0.0 12.9 0.00 0.61 0.03 53 1010.7
20260507134558 20 64 0.0 16.1 0.00 0.61 0.03 52 1010.8
20260507133049 20 126 0.0 12.9 0.00 0.61 0.03 58 1011.0
20260507131549 20 71 1.6 19.3 0.00 0.61 0.03 59 1011.2
20260507130046 20 47 0.0 8.0 0.00 0.61 0.03 64 1011.3
20260507124544 19 121 0.0 17.7 0.00 0.61 0.03 61 1011.5
20260507123046 19 57 1.6 14.5 0.00 0.61 0.03 60 1011.5
20260507121544 20 107 0.0 11.3 0.00 0.61 0.03 59 1011.8
20260507120041 19 117 0.0 11.3 0.00 0.61 0.03 60 1012.0
20260507114538 18 128 0.0 6.4 0.00 0.64 0.03 65 1012.2
20260507113037 18 88 0.0 14.5 0.00 0.64 0.03 62 1012.3
20260507111537 18 103 0.0 9.7 0.00 0.64 0.03 66 1012.5
20260507110033 17 109 0.0 4.8 0.00 0.64 0.03 68 1012.6
20260507104529 17 123 0.0 12.9 0.00 0.71 0.03 71 1012.7
20260507103028 17 64 0.0 0.0 0.00 0.71 0.03 77 1012.8
20260507101527 17 111 0.0 0.0 0.00 0.71 0.03 73 1012.7
20260507100025 17 97 0.0 0.0 0.00 0.71 0.03 79 1012.7
20260507094526 17 120 0.0 0.0 0.00 0.89 0.03 80 1012.9
20260507093022 17 108 0.0 14.5 0.00 0.89 0.03 79 1012.9
20260507091521 17 80 0.0 9.7 0.00 0.89 0.03 76 1012.9
20260507090019 17 102 0.0 1.6 0.00 0.89 0.03 76 1012.9
20260507084518 17 169 0.0 0.0 0.00 1.02 0.03 80 1013.1
20260507083015 16 118 0.0 1.6 0.00 1.02 0.03 82 1013.0
20260507081513 16 115 0.0 0.0 0.00 1.02 0.03 82 1013.0
20260507080010 16 155 0.0 6.4 0.00 1.02 0.03 89 1013.0
20260507074501 15 138 0.0 0.0 0.00 1.14 0.03 91 1013.0
20260507073058 15 90 0.0 0.0 0.00 1.14 0.03 93 1012.9
20260507071554 14 107 0.0 0.0 0.00 1.14 0.03 93 1013.0
20260507070053 13 96 0.0 0.0 0.00 1.14 0.03 96 1013.0
20260507064604 12 94 0.0 0.0 0.00 1.14 0.03 96 1012.9
20260507063049 12 94 0.0 0.0 0.00 1.14 0.03 100 1012.9
20260507061542 11 94 0.0 0.0 0.00 1.14 0.03 100 1012.8
20260507060040 10 94 0.0 0.0 0.00 1.14 0.03 100 1012.7
20260507054541 10 94 0.0 0.0 0.00 1.14 0.03 100 1012.7
20260507053035 8 94 0.0 0.0 0.00 1.14 0.03 100 1012.4
20260507051532 8 94 0.0 0.0 0.00 1.14 0.03 99 1012.1
20260507050036 8 94 0.0 0.0 0.00 1.14 0.03 99 1012.0
20260507044526 8 94 0.0 0.0 0.00 1.14 0.03 98 1012.0
20260507043023 8 94 0.0 0.0 0.00 1.14 0.03 98 1012.0
20260507041537 8 94 0.0 0.0 0.00 1.14 0.03 98 1011.9
20260507040018 8 94 0.0 0.0 0.00 1.14 0.03 98 1011.7
20260507034517 8 94 0.0 0.0 0.00 1.14 0.03 98 1011.6
20260507033015 9 94 0.0 0.0 0.00 1.14 0.03 98 1011.7
20260507031513 9 94 0.0 0.0 0.00 1.14 0.03 98 1011.7
20260507030010 10 94 0.0 0.0 0.00 1.14 0.03 99 1011.5
20260507024509 10 94 0.0 0.0 0.00 1.14 0.03 99 1011.4
20260507023008 10 94 0.0 0.0 0.00 1.14 0.03 99 1011.4
20260507021507 10 94 0.0 0.0 0.03 1.14 0.03 99 1011.2
20260507020007 10 94 0.0 0.0 0.03 1.14 0.03 98 1011.4
20260507014515 10 94 0.0 0.0 0.03 1.17 0.03 99 1011.3
20260507013015 10 94 0.0 0.0 0.03 1.17 0.03 98 1011.1
20260507011502 10 94 0.0 0.0 0.00 1.14 0.00 99 1011.1
20260507010002 10 94 0.0 0.0 0.00 1.14 0.00 98 1011.2
20260507004600 11 94 0.0 0.0 0.00 1.14 0.00 99 1011.3
20260507003059 11 94 0.0 0.0 0.00 1.14 0.00 99 1011.3
20260507001620 11 94 0.0 0.0 0.00 1.14 0.00 99 1011.4
20260507000100 11 94 0.0 0.0 0.00 1.14 0.00 99 1011.4
20260506234557 11 94 0.0 0.0 0.00 1.14 0.00 99 1011.4
20260506233102 11 94 0.0 0.0 0.00 1.14 0.00 98 1011.4
20260506231556 11 94 0.0 0.0 0.00 1.14 0.00 98 1011.5
20260506230054 11 94 0.0 0.0 0.00 1.14 0.00 98 1011.5
20260506224553 11 94 0.0 0.0 0.00 1.17 0.00 98 1011.4
20260506223105 11 94 0.0 0.0 0.00 1.17 0.00 98 1011.3
20260506221550 11 94 0.0 0.0 0.00 1.17 0.00 98 1011.2
20260506220049 11 94 0.0 0.0 0.00 1.17 0.00 98 1011.1
20260506214547 11 94 0.0 0.0 0.00 1.17 1.17 98 1011.1
20260506213047 11 94 0.0 0.0 0.00 1.17 1.17 98 1011.1
20260506211547 11 94 0.0 0.0 0.00 1.17 1.17 98 1011.3
20260506210047 12 94 0.0 0.0 0.00 1.17 1.17 98 1011.3
20260506204546 12 94 0.0 0.0 0.00 1.17 1.17 98 1011.2
20260506203047 12 94 0.0 0.0 0.08 1.17 1.17 97 1011.0
20260506201545 12 94 0.0 0.0 0.08 1.17 1.17 97 1010.9
20260506200117 12 15 0.0 0.0 0.08 1.17 1.17 98 1010.8
20260506194544 12 15 0.0 0.0 0.08 1.17 1.17 98 1010.7
20260506193046 12 15 0.0 0.0 0.00 1.09 1.09 97 1010.4
20260506191546 12 15 0.0 0.0 0.20 1.09 1.09 97 1010.5
20260506190045 12 15 0.0 0.0 0.25 1.09 1.09 97 1010.4
20260506184543 12 91 0.0 0.0 0.33 1.09 1.09 97 1010.2
20260506183042 12 91 0.0 0.0 0.33 1.09 1.09 97 1010.0
20260506181543 12 64 0.0 0.0 0.13 0.89 0.89 97 1009.6
20260506180049 12 70 0.0 0.0 0.05 0.81 0.79 97 1009.6
20260506174540 12 70 0.0 0.0 0.00 0.79 0.76 96 1009.6
20260506173039 12 166 0.0 0.0 0.00 0.79 0.76 97 1009.6
20260506171549 13 103 0.0 0.0 0.00 0.79 0.76 97 1009.6
20260506170038 13 103 0.0 0.0 0.03 0.79 0.76 97 1009.8
20260506164538 13 134 0.0 0.0 0.05 0.79 0.76 97 1009.9
20260506163046 13 109 0.0 0.0 0.05 0.79 0.76 97 1009.9
20260506161547 13 82 0.0 0.0 0.05 0.79 0.76 96 1010.0
20260506160033 13 83 0.0 0.0 0.05 0.76 0.71 96 1010.2